| time (UTC) | temp F | wind direction | speed MPH | gust MPH | rain 1hr in | rain 24hr in | rain mn in | humidity % | barometer mb |
| 20260906003940 | 75 | 98 | 0.0 | 0.0 | 0.00 | 0.00 | 0.00 | 81 | 1015.4 |
| 20260906003433 | 76 | 98 | 0.0 | 0.0 | 0.00 | 0.00 | 0.00 | 81 | 1015.3 |
| 20260906002926 | 76 | 98 | 0.0 | 0.0 | 0.00 | 0.00 | 0.00 | 80 | 1015.5 |
| 20260906002643 | 76 | 98 | 1.0 | 3.0 | 0.00 | 0.00 | 0.00 | 80 | 1015.4 |
| 20260906001916 | 76 | 98 | 2.0 | 4.0 | 0.00 | 0.00 | 0.00 | 80 | 1015.3 |
| 20260906001630 | 76 | 94 | 3.0 | 7.0 | 0.00 | 0.00 | 0.00 | 80 | 1015.2 |
| 20260906000902 | 76 | 92 | 3.0 | 7.0 | 0.00 | 0.00 | 0.00 | 79 | 1015.2 |
| 20260906000357 | 76 | 90 | 3.0 | 8.0 | 0.00 | 0.00 | 0.00 | 79 | 1015.3 |
| 20260905235850 | 76 | 81 | 4.0 | 9.0 | 0.00 | 0.00 | 0.00 | 79 | 1015.3 |
| 20260905235345 | 76 | 84 | 4.0 | 10.0 | 0.00 | 0.00 | 0.00 | 79 | 1015.3 |
| 20260905235056 | 76 | 71 | 4.0 | 10.0 | 0.00 | 0.00 | 0.00 | 79 | 1015.2 |
| 20260905234332 | 77 | 100 | 5.0 | 9.0 | 0.00 | 0.00 | 0.00 | 78 | 1015.2 |
| 20260905233827 | 77 | 84 | 5.0 | 11.0 | 0.00 | 0.00 | 0.00 | 78 | 1015.2 |
| 20260905233321 | 77 | 94 | 5.0 | 12.0 | 0.00 | 0.00 | 0.00 | 77 | 1015.2 |
| 20260905232814 | 77 | 94 | 5.0 | 13.0 | 0.00 | 0.00 | 0.00 | 77 | 1015.3 |
| 20260905232309 | 77 | 97 | 4.0 | 11.0 | 0.00 | 0.00 | 0.00 | 77 | 1015.4 |
| 20260905231802 | 77 | 86 | 3.0 | 8.0 | 0.00 | 0.00 | 0.00 | 77 | 1015.6 |
| 20260905231524 | 78 | 123 | 2.0 | 5.0 | 0.00 | 0.00 | 0.00 | 76 | 1015.5 |
| 20260905230750 | 78 | 51 | 2.0 | 8.0 | 0.00 | 0.00 | 0.00 | 76 | 1015.6 |
| 20260905230250 | 78 | 112 | 3.0 | 9.0 | 0.00 | 0.00 | 0.00 | 76 | 1015.6 |
| 20260905225750 | 78 | 101 | 2.0 | 9.0 | 0.00 | 0.00 | 0.00 | 76 | 1015.7 |
| 20260905225251 | 78 | 108 | 0.0 | 3.0 | 0.00 | 0.00 | 0.00 | 76 | 1015.8 |
| 20260905224751 | 78 | 105 | 1.0 | 4.0 | 0.00 | 0.00 | 0.00 | 76 | 1015.8 |
| 20260905224251 | 78 | 110 | 3.0 | 9.0 | 0.00 | 0.00 | 0.00 | 76 | 1015.8 |
| 20260905223750 | 78 | 84 | 4.0 | 9.0 | 0.00 | 0.00 | 0.00 | 76 | 1015.7 |
| 20260905223510 | 78 | 125 | 3.0 | 13.0 | 0.00 | 0.00 | 0.00 | 76 | 1015.7 |
| 20260905222749 | 78 | 99 | 3.0 | 13.0 | 0.00 | 0.00 | 0.00 | 76 | 1015.6 |
| 20260905222249 | 78 | 70 | 3.0 | 10.0 | 0.00 | 0.00 | 0.00 | 77 | 1015.6 |
| 20260905221749 | 78 | 130 | 4.0 | 10.0 | 0.00 | 0.00 | 0.00 | 76 | 1015.6 |
| 20260905221249 | 79 | 25 | 4.0 | 10.0 | 0.00 | 0.00 | 0.00 | 76 | 1015.7 |
| 20260905220749 | 79 | 83 | 4.0 | 10.0 | 0.00 | 0.00 | 0.00 | 76 | 1015.8 |
| 20260905220248 | 79 | 73 | 4.0 | 10.0 | 0.00 | 0.00 | 0.00 | 75 | 1015.7 |
| 20260905215745 | 79 | 87 | 3.0 | 8.0 | 0.00 | 0.00 | 0.00 | 76 | 1015.8 |
| 20260905215246 | 79 | 120 | 3.0 | 8.0 | 0.00 | 0.00 | 0.00 | 75 | 1015.8 |
| 20260905214745 | 80 | 78 | 2.0 | 8.0 | 0.00 | 0.00 | 0.00 | 75 | 1015.9 |
| 20260905214245 | 80 | 92 | 1.0 | 8.0 | 0.00 | 0.00 | 0.00 | 74 | 1016.0 |
| 20260905213744 | 80 | 76 | 2.0 | 8.0 | 0.00 | 0.00 | 0.00 | 75 | 1016.0 |
| 20260905213244 | 80 | 66 | 2.0 | 8.0 | 0.00 | 0.00 | 0.00 | 73 | 1016.0 |
| 20260905212745 | 80 | 75 | 3.0 | 8.0 | 0.00 | 0.00 | 0.00 | 73 | 1016.1 |
| 20260905212245 | 80 | 87 | 3.0 | 7.0 | 0.00 | 0.00 | 0.00 | 73 | 1016.2 |
| 20260905211745 | 80 | 90 | 3.0 | 8.0 | 0.00 | 0.00 | 0.00 | 73 | 1016.2 |
| 20260905211244 | 80 | 85 | 3.0 | 8.0 | 0.00 | 0.00 | 0.00 | 73 | 1016.3 |
| 20260905210745 | 81 | 83 | 3.0 | 7.0 | 0.00 | 0.00 | 0.00 | 73 | 1016.3 |
| 20260905210244 | 81 | 87 | 3.0 | 7.0 | 0.00 | 0.00 | 0.00 | 72 | 1016.4 |
| 20260905205745 | 81 | 85 | 2.0 | 7.0 | 0.00 | 0.00 | 0.00 | 73 | 1016.3 |
| 20260905205245 | 81 | 93 | 1.0 | 7.0 | 0.00 | 0.00 | 0.00 | 74 | 1016.3 |
| 20260905205010 | 81 | 65 | 0.0 | 4.0 | 0.00 | 0.00 | 0.00 | 72 | 1016.4 |
| 20260905204244 | 80 | 89 | 0.0 | 0.0 | 0.00 | 0.00 | 0.00 | 75 | 1016.4 |
| 20260905203744 | 80 | 80 | 0.0 | 0.0 | 0.00 | 0.00 | 0.00 | 77 | 1016.3 |
| 20260905203245 | 80 | 90 | 0.0 | 0.0 | 0.00 | 0.00 | 0.00 | 78 | 1016.4 |
| 20260905202737 | 80 | 90 | 0.0 | 0.0 | 0.00 | 0.00 | 0.00 | 75 | 1016.5 |
| 20260905202455 | 80 | 213 | 0.0 | 0.0 | 0.00 | 0.00 | 0.00 | 76 | 1016.4 |
| 20260905201726 | 80 | 209 | 0.0 | 0.0 | 0.00 | 0.00 | 0.00 | 75 | 1016.4 |
| 20260905201220 | 81 | 208 | 0.0 | 0.0 | 0.00 | 0.00 | 0.00 | 74 | 1016.5 |
| 20260905200714 | 81 | 182 | 0.0 | 0.0 | 0.00 | 0.00 | 0.00 | 75 | 1016.6 |
| 20260905200208 | 79 | 257 | 0.0 | 0.0 | 0.00 | 0.00 | 0.00 | 77 | 1016.5 |
| 20260905195923 | 79 | 257 | 0.0 | 0.0 | 0.00 | 0.00 | 0.00 | 77 | 1016.5 |
| 20260905195157 | 79 | 257 | 0.0 | 0.0 | 0.00 | 0.00 | 0.00 | 80 | 1016.6 |
| 20260905194910 | 79 | 257 | 0.0 | 0.0 | 0.00 | 0.00 | 0.00 | 80 | 1016.6 |
| 20260905194143 | 79 | 257 | 0.0 | 0.0 | 0.00 | 0.00 | 0.00 | 78 | 1016.6 |
| 20260905193856 | 79 | 257 | 0.0 | 0.0 | 0.00 | 0.00 | 0.00 | 76 | 1016.7 |
| 20260905193357 | 79 | 209 | 0.0 | 0.0 | 0.00 | 0.00 | 0.00 | 77 | 1016.8 |
| 20260905192625 | 79 | 271 | 0.0 | 0.0 | 0.00 | 0.00 | 0.00 | 77 | 1016.8 |
| 20260905192604 | 79 | 221 | 0.0 | 0.0 | 0.00 | 0.00 | 0.00 | 79 | 1016.8 |
| 20260905191613 | 79 | 221 | 0.0 | 0.0 | 0.00 | 0.00 | 0.00 | 77 | 1016.8 |
| 20260905191108 | 79 | 217 | 0.0 | 0.0 | 0.00 | 0.00 | 0.00 | 78 | 1017.0 |
| 20260905190602 | 79 | 216 | 0.0 | 0.0 | 0.00 | 0.00 | 0.00 | 79 | 1016.9 |
| 20260905190056 | 79 | 218 | 0.0 | 0.0 | 0.00 | 0.00 | 0.00 | 80 | 1017.0 |
| 20260905185550 | 79 | 209 | 0.0 | 0.0 | 0.00 | 0.00 | 0.00 | 80 | 1017.0 |
| 20260905185043 | 79 | 315 | 0.0 | 0.0 | 0.00 | 0.00 | 0.00 | 80 | 1017.0 |
| 20260905184759 | 79 | 315 | 0.0 | 0.0 | 0.00 | 0.00 | 0.00 | 79 | 1016.9 |
| 20260905184031 | 79 | 315 | 0.0 | 0.0 | 0.00 | 0.00 | 0.00 | 78 | 1017.0 |
| 20260905183526 | 79 | 205 | 1.0 | 5.0 | 0.00 | 0.00 | 0.00 | 79 | 1017.0 |
| 20260905183019 | 80 | 204 | 1.0 | 5.0 | 0.00 | 0.00 | 0.00 | 78 | 1016.9 |
| 20260905182514 | 80 | 163 | 1.0 | 5.0 | 0.00 | 0.00 | 0.00 | 74 | 1017.0 |
| 20260905182007 | 79 | 167 | 0.0 | 5.0 | 0.00 | 0.00 | 0.00 | 75 | 1017.1 |
| 20260905181501 | 78 | 98 | 0.0 | 3.0 | 0.00 | 0.00 | 0.00 | 78 | 1017.1 |
| 20260905180956 | 78 | 84 | 1.0 | 3.0 | 0.00 | 0.00 | 0.00 | 78 | 1017.0 |
| 20260905180450 | 78 | 85 | 1.0 | 4.0 | 0.00 | 0.00 | 0.00 | 78 | 1017.1 |
| 20260905175943 | 78 | 93 | 1.0 | 4.0 | 0.00 | 0.00 | 0.00 | 81 | 1017.1 |
| 20260905175438 | 78 | 119 | 0.0 | 3.0 | 0.00 | 0.00 | 0.00 | 81 | 1017.1 |
| 20260905174932 | 77 | 166 | 1.0 | 4.0 | 0.00 | 0.00 | 0.00 | 82 | 1017.2 |
| 20260905174426 | 77 | 166 | 1.0 | 4.0 | 0.00 | 0.00 | 0.00 | 81 | 1017.2 |
| 20260905173920 | 77 | 166 | 1.0 | 4.0 | 0.00 | 0.00 | 0.00 | 80 | 1017.3 |
| 20260905173414 | 77 | 151 | 1.0 | 3.0 | 0.00 | 0.00 | 0.00 | 81 | 1017.3 |
| 20260905172907 | 76 | 57 | 1.0 | 4.0 | 0.00 | 0.00 | 0.00 | 82 | 1017.2 |
| 20260905172403 | 76 | 96 | 1.0 | 4.0 | 0.00 | 0.00 | 0.00 | 81 | 1017.2 |
| 20260905171855 | 76 | 107 | 1.0 | 4.0 | 0.00 | 0.00 | 0.00 | 82 | 1017.3 |
| 20260905171350 | 76 | 104 | 1.0 | 4.0 | 0.00 | 0.00 | 0.00 | 81 | 1017.3 |
| 20260905170845 | 76 | 93 | 1.0 | 4.0 | 0.00 | 0.00 | 0.00 | 82 | 1017.3 |
| 20260905170338 | 76 | 88 | 0.0 | 4.0 | 0.00 | 0.00 | 0.00 | 84 | 1017.4 |
| 20260905165832 | 75 | 32 | 0.0 | 2.0 | 0.00 | 0.00 | 0.00 | 84 | 1017.4 |
| 20260905165550 | 75 | 32 | 1.0 | 2.0 | 0.00 | 0.00 | 0.00 | 84 | 1017.5 |
| 20260905164820 | 75 | 36 | 1.0 | 3.0 | 0.00 | 0.00 | 0.00 | 85 | 1017.5 |
| 20260905164314 | 75 | 35 | 1.0 | 3.0 | 0.00 | 0.00 | 0.00 | 86 | 1017.5 |
| 20260905163807 | 75 | 68 | 1.0 | 2.0 | 0.00 | 0.00 | 0.00 | 86 | 1017.6 |
| 20260905163301 | 74 | 89 | 0.0 | 2.0 | 0.00 | 0.00 | 0.00 | 85 | 1017.5 |
| 20260905162757 | 74 | 88 | 0.0 | 3.0 | 0.00 | 0.00 | 0.00 | 86 | 1017.5 |
| 20260905162249 | 74 | 89 | 0.0 | 3.0 | 0.00 | 0.00 | 0.00 | 86 | 1017.5 |
| 20260905161743 | 74 | 97 | 0.0 | 0.0 | 0.00 | 0.00 | 0.00 | 86 | 1017.5 |
| 20260905161238 | 74 | 97 | 1.0 | 2.0 | 0.00 | 0.00 | 0.00 | 86 | 1017.5 |
| 20260905160731 | 74 | 97 | 1.0 | 3.0 | 0.00 | 0.00 | 0.00 | 86 | 1017.4 |
| 20260905160446 | 74 | 95 | 1.0 | 3.0 | 0.00 | 0.00 | 0.00 | 86 | 1017.4 |
| 20260905155719 | 74 | 95 | 1.0 | 4.0 | 0.00 | 0.00 | 0.00 | 85 | 1017.4 |
| 20260905155214 | 74 | 95 | 1.0 | 4.0 | 0.00 | 0.00 | 0.00 | 86 | 1017.4 |
| 20260905154707 | 74 | 94 | 1.0 | 4.0 | 0.00 | 0.00 | 0.00 | 86 | 1017.3 |
| 20260905154202 | 74 | 94 | 1.0 | 6.0 | 0.00 | 0.00 | 0.00 | 86 | 1017.3 |
| 20260905153656 | 73 | 348 | 1.0 | 6.0 | 0.00 | 0.00 | 0.00 | 86 | 1017.4 |
| 20260905153149 | 73 | 348 | 2.0 | 6.0 | 0.00 | 0.00 | 0.00 | 86 | 1017.3 |
| 20260905152643 | 73 | 95 | 2.0 | 6.0 | 0.00 | 0.00 | 0.00 | 86 | 1017.2 |
| 20260905152137 | 73 | 41 | 2.0 | 7.0 | 0.00 | 0.00 | 0.00 | 86 | 1017.1 |
| 20260905151632 | 73 | 85 | 3.0 | 7.0 | 0.00 | 0.00 | 0.00 | 86 | 1017.0 |
| 20260905151126 | 73 | 97 | 3.0 | 8.0 | 0.00 | 0.00 | 0.00 | 86 | 1016.8 |
| 20260905150620 | 73 | 95 | 3.0 | 8.0 | 0.00 | 0.00 | 0.00 | 86 | 1016.7 |
| 20260905150114 | 73 | 74 | 2.0 | 6.0 | 0.00 | 0.00 | 0.00 | 86 | 1016.9 |
| 20260905145830 | 73 | 69 | 2.0 | 6.0 | 0.00 | 0.00 | 0.00 | 87 | 1017.0 |
| 20260905145102 | 73 | 14 | 1.0 | 4.0 | 0.00 | 0.00 | 0.00 | 87 | 1016.9 |
| 20260905144556 | 73 | 78 | 1.0 | 3.0 | 0.00 | 0.00 | 0.00 | 87 | 1016.9 |
| 20260905144051 | 73 | 73 | 2.0 | 6.0 | 0.00 | 0.00 | 0.00 | 87 | 1016.9 |
| 20260905143544 | 73 | 65 | 2.0 | 6.0 | 0.00 | 0.00 | 0.00 | 87 | 1016.8 |
| 20260905143037 | 73 | 101 | 2.0 | 7.0 | 0.00 | 0.00 | 0.00 | 87 | 1016.7 |
| 20260905142536 | 73 | 86 | 2.0 | 7.0 | 0.00 | 0.00 | 0.00 | 87 | 1016.7 |
| 20260905142037 | 73 | 87 | 1.0 | 7.0 | 0.00 | 0.00 | 0.00 | 87 | 1016.7 |
| 20260905141533 | 73 | 87 | 1.0 | 7.0 | 0.00 | 0.00 | 0.00 | 87 | 1016.7 |
| 20260905141033 | 73 | 78 | 1.0 | 2.0 | 0.00 | 0.00 | 0.00 | 88 | 1016.7 |
| 20260905140533 | 73 | 77 | 0.0 | 2.0 | 0.00 | 0.00 | 0.00 | 88 | 1016.5 |
| 20260905140031 | 73 | 77 | 0.0 | 2.0 | 0.00 | 0.00 | 0.00 | 88 | 1016.4 |
| 20260905135529 | 73 | 77 | 1.0 | 4.0 | 0.00 | 0.00 | 0.00 | 88 | 1016.4 |
| 20260905135028 | 73 | 89 | 1.0 | 4.0 | 0.00 | 0.00 | 0.00 | 88 | 1016.3 |
| 20260905134525 | 72 | 89 | 2.0 | 4.0 | 0.00 | 0.00 | 0.00 | 87 | 1016.2 |
| 20260905134023 | 72 | 88 | 3.0 | 6.0 | 0.00 | 0.00 | 0.00 | 87 | 1016.0 |
| 20260905133523 | 72 | 95 | 2.0 | 6.0 | 0.00 | 0.00 | 0.00 | 87 | 1016.0 |
| 20260905133025 | 72 | 90 | 2.0 | 6.0 | 0.00 | 0.01 | 0.00 | 88 | 1016.0 |
| 20260905132523 | 72 | 80 | 2.0 | 5.0 | 0.00 | 0.01 | 0.00 | 88 | 1016.0 |
| 20260905132024 | 72 | 96 | 2.0 | 8.0 | 0.00 | 0.01 | 0.00 | 88 | 1015.8 |
| 20260905131747 | 72 | 46 | 2.0 | 8.0 | 0.00 | 0.01 | 0.00 | 88 | 1015.7 |
| 20260905131019 | 72 | 98 | 2.0 | 4.0 | 0.00 | 0.02 | 0.00 | 88 | 1015.6 |
| 20260905130519 | 72 | 93 | 2.0 | 7.0 | 0.00 | 0.02 | 0.00 | 88 | 1015.6 |
| 20260905130019 | 72 | 86 | 2.0 | 7.0 | 0.00 | 0.02 | 0.00 | 88 | 1015.6 |
| 20260905125520 | 72 | 67 | 2.0 | 7.0 | 0.00 | 0.02 | 0.00 | 88 | 1015.6 |
| 20260905125019 | 72 | 86 | 2.0 | 5.0 | 0.00 | 0.03 | 0.00 | 88 | 1015.6 |
| 20260905124520 | 72 | 90 | 2.0 | 4.0 | 0.00 | 0.03 | 0.00 | 88 | 1015.7 |
| 20260905124019 | 72 | 91 | 2.0 | 6.0 | 0.00 | 0.03 | 0.00 | 88 | 1015.7 |
| 20260905124006 | 72 | 96 | 1.0 | 6.0 | 0.00 | 0.04 | 0.00 | 88 | 1015.6 |
| 20260905123237 | 72 | 89 | 0.0 | 3.0 | 0.00 | 0.04 | 0.00 | 88 | 1015.6 |
| 20260905122519 | 72 | 88 | 0.0 | 2.0 | 0.00 | 0.05 | 0.00 | 88 | 1015.6 |
| 20260905122242 | 72 | 88 | 1.0 | 4.0 | 0.00 | 0.05 | 0.00 | 88 | 1015.6 |
| 20260905121520 | 72 | 88 | 2.0 | 4.0 | 0.00 | 0.06 | 0.00 | 88 | 1015.5 |
| 20260905121236 | 72 | 87 | 1.0 | 3.0 | 0.00 | 0.06 | 0.00 | 88 | 1015.5 |
| 20260905120520 | 71 | 92 | 1.0 | 4.0 | 0.00 | 0.07 | 0.00 | 88 | 1015.5 |
| 20260905120020 | 71 | 86 | 1.0 | 4.0 | 0.00 | 0.07 | 0.00 | 88 | 1015.4 |
| 20260905115520 | 71 | 88 | 0.0 | 2.0 | 0.00 | 0.08 | 0.00 | 88 | 1015.4 |
| 20260905115019 | 71 | 88 | 1.0 | 4.0 | 0.00 | 0.09 | 0.00 | 88 | 1015.3 |
| 20260905114513 | 71 | 88 | 1.0 | 4.0 | 0.00 | 0.10 | 0.00 | 88 | 1015.1 |
| 20260905114006 | 72 | 96 | 0.0 | 2.0 | 0.00 | 0.10 | 0.00 | 88 | 1015.1 |
| 20260905113501 | 72 | 96 | 0.0 | 3.0 | 0.00 | 0.11 | 0.00 | 88 | 1015.2 |
| 20260905112954 | 71 | 96 | 0.0 | 3.0 | 0.00 | 0.12 | 0.00 | 88 | 1015.1 |
| 20260905112452 | 71 | 99 | 0.0 | 2.0 | 0.00 | 0.13 | 0.00 | 88 | 1015.0 |
| 20260905111952 | 72 | 326 | 0.0 | 2.0 | 0.00 | 0.14 | 0.00 | 88 | 1015.0 |
| 20260905111452 | 72 | 322 | 0.0 | 2.0 | 0.00 | 0.15 | 0.00 | 88 | 1015.1 |
| 20260905110952 | 72 | 322 | 0.0 | 1.0 | 0.00 | 0.16 | 0.00 | 88 | 1015.1 |
| 20260905110452 | 72 | 322 | 1.0 | 3.0 | 0.00 | 0.18 | 0.00 | 88 | 1015.2 |
| 20260905105951 | 72 | 322 | 1.0 | 3.0 | 0.00 | 0.20 | 0.00 | 88 | 1015.1 |
| 20260905105711 | 71 | 88 | 0.0 | 3.0 | 0.00 | 0.22 | 0.00 | 88 | 1014.7 |
| 20260905104951 | 71 | 89 | 0.0 | 1.0 | 0.00 | 0.24 | 0.00 | 88 | 1014.4 |
| 20260905104451 | 71 | 89 | 0.0 | 1.0 | 0.00 | 0.24 | 0.00 | 88 | 1014.2 |
| 20260905103950 | 71 | 89 | 1.0 | 4.0 | 0.00 | 0.24 | 0.00 | 88 | 1014.2 |
| 20260905103448 | 71 | 89 | 1.0 | 4.0 | 0.00 | 0.24 | 0.00 | 88 | 1014.5 |
| 20260905102947 | 71 | 78 | 0.0 | 2.0 | 0.00 | 0.24 | 0.00 | 88 | 1014.4 |
| 20260905102448 | 71 | 78 | 0.0 | 3.0 | 0.00 | 0.24 | 0.00 | 88 | 1014.5 |
| 20260905101945 | 71 | 78 | 0.0 | 3.0 | 0.00 | 0.24 | 0.00 | 88 | 1014.4 |
| 20260905101443 | 71 | 80 | 0.0 | 6.0 | 0.00 | 0.24 | 0.00 | 88 | 1014.3 |
| 20260905100942 | 71 | 89 | 2.0 | 6.0 | 0.00 | 0.25 | 0.00 | 88 | 1014.1 |
| 20260905100440 | 71 | 88 | 2.0 | 7.0 | 0.00 | 0.26 | 0.00 | 87 | 1014.1 |
| 20260905095937 | 71 | 93 | 1.0 | 7.0 | 0.00 | 0.28 | 0.00 | 87 | 1014.0 |
| 20260905095435 | 71 | 101 | 0.0 | 0.0 | 0.00 | 0.30 | 0.00 | 87 | 1014.0 |
| 20260905094936 | 71 | 132 | 0.0 | 0.0 | 0.00 | 0.32 | 0.00 | 86 | 1014.0 |
| 20260905094654 | 71 | 132 | 0.0 | 0.0 | 0.00 | 0.34 | 0.00 | 86 | 1014.1 |
| 20260905094151 | 71 | 132 | 0.0 | 0.0 | 0.00 | 0.38 | 0.00 | 86 | 1014.2 |
| 20260905093417 | 72 | 115 | 0.0 | 3.0 | 0.00 | 0.42 | 0.00 | 86 | 1014.2 |
| 20260905092910 | 72 | 147 | 1.0 | 6.0 | 0.00 | 0.48 | 0.00 | 85 | 1014.3 |
| 20260905092405 | 72 | 80 | 1.0 | 6.0 | 0.00 | 0.56 | 0.00 | 85 | 1014.3 |
| 20260905091859 | 72 | 100 | 0.0 | 4.0 | 0.00 | 0.63 | 0.00 | 85 | 1014.2 |
| 20260905091353 | 72 | 165 | 0.0 | 2.0 | 0.00 | 0.63 | 0.00 | 85 | 1014.2 |
| 20260905090846 | 73 | 117 | 1.0 | 3.0 | 0.00 | 0.63 | 0.00 | 85 | 1014.4 |
| 20260905090341 | 73 | 118 | 1.0 | 3.0 | 0.00 | 0.63 | 0.00 | 85 | 1014.4 |
| 20260905090054 | 73 | 98 | 1.0 | 3.0 | 0.00 | 0.63 | 0.00 | 85 | 1014.2 |
| 20260905085546 | 73 | 84 | 1.0 | 3.0 | 0.00 | 0.63 | 0.00 | 85 | 1014.3 |
| 20260905085045 | 74 | 198 | 0.0 | 3.0 | 0.00 | 0.63 | 0.00 | 85 | 1014.2 |
| 20260905084317 | 74 | 138 | 0.0 | 3.0 | 0.00 | 0.63 | 0.00 | 85 | 1014.2 |
| 20260905083811 | 74 | 199 | 1.0 | 8.0 | 0.00 | 0.63 | 0.00 | 85 | 1014.1 |
| 20260905083305 | 74 | 118 | 1.0 | 8.0 | 0.00 | 0.63 | 0.00 | 86 | 1014.1 |
| 20260905082758 | 75 | 322 | 1.0 | 3.0 | 0.00 | 0.63 | 0.00 | 86 | 1014.1 |
| 20260905082253 | 75 | 78 | 0.0 | 2.0 | 0.00 | 0.63 | 0.00 | 86 | 1014.0 |
| 20260905081747 | 75 | 26 | 0.0 | 1.0 | 0.00 | 0.63 | 0.00 | 86 | 1014.1 |
| 20260905081457 | 75 | 26 | 0.0 | 0.0 | 0.00 | 0.63 | 0.00 | 86 | 1014.1 |
| 20260905080735 | 75 | 26 | 0.0 | 0.0 | 0.00 | 0.63 | 0.00 | 86 | 1014.1 |
| 20260905080228 | 75 | 26 | 0.0 | 1.0 | 0.00 | 0.63 | 0.00 | 86 | 1014.1 |
| 20260905075723 | 75 | 26 | 0.0 | 2.0 | 0.00 | 0.63 | 0.00 | 86 | 1014.1 |
| 20260905075446 | 75 | 26 | 0.0 | 2.0 | 0.00 | 0.63 | 0.00 | 86 | 1014.1 |
| 20260905074711 | 76 | 26 | 0.0 | 1.0 | 0.00 | 0.63 | 0.00 | 87 | 1014.1 |
| 20260905074205 | 76 | 26 | 0.0 | 1.0 | 0.00 | 0.63 | 0.00 | 87 | 1014.0 |
| 20260905073658 | 76 | 26 | 0.0 | 2.0 | 0.00 | 0.63 | 0.00 | 87 | 1014.0 |
| 20260905073149 | 76 | 26 | 0.0 | 2.0 | 0.00 | 0.63 | 0.00 | 87 | 1014.0 |
| 20260905072642 | 76 | 26 | 0.0 | 2.0 | 0.00 | 0.63 | 0.00 | 87 | 1014.0 |
| 20260905072356 | 76 | 23 | 0.0 | 2.0 | 0.00 | 0.63 | 0.00 | 87 | 1014.1 |
| 20260905071631 | 76 | 16 | 0.0 | 1.0 | 0.00 | 0.63 | 0.00 | 86 | 1014.1 |
| 20260905071124 | 76 | 16 | 0.0 | 1.0 | 0.00 | 0.63 | 0.00 | 86 | 1014.0 |
| 20260905070620 | 76 | 16 | 0.0 | 1.0 | 0.00 | 0.63 | 0.00 | 86 | 1014.0 |
| 20260905070113 | 76 | 16 | 0.0 | 0.0 | 0.00 | 0.63 | 0.00 | 86 | 1014.0 |
| 20260905065606 | 76 | 16 | 0.0 | 0.0 | 0.00 | 0.63 | 0.00 | 86 | 1013.9 |
| 20260905065101 | 76 | 16 | 0.0 | 0.0 | 0.00 | 0.63 | 0.00 | 86 | 1013.9 |
| 20260905064818 | 76 | 16 | 0.0 | 0.0 | 0.00 | 0.63 | 0.00 | 86 | 1013.9 |
| 20260905064048 | 76 | 16 | 0.0 | 0.0 | 0.00 | 0.63 | 0.00 | 86 | 1013.7 |
| 20260905063543 | 76 | 16 | 0.0 | 0.0 | 0.00 | 0.63 | 0.00 | 86 | 1013.8 |
| 20260905063036 | 76 | 16 | 0.0 | 0.0 | 0.00 | 0.63 | 0.00 | 86 | 1013.7 |
| 20260905062532 | 77 | 16 | 0.0 | 0.0 | 0.00 | 0.63 | 0.00 | 86 | 1013.7 |
| 20260905062025 | 77 | 14 | 0.0 | 0.0 | 0.00 | 0.63 | 0.00 | 86 | 1013.7 |
| 20260905061519 | 77 | 13 | 0.0 | 0.0 | 0.00 | 0.63 | 0.00 | 86 | 1013.7 |
| 20260905061012 | 77 | 13 | 0.0 | 2.0 | 0.00 | 0.63 | 0.00 | 86 | 1013.7 |
| 20260905060732 | 77 | 13 | 0.0 | 2.0 | 0.00 | 0.63 | 0.00 | 86 | 1013.8 |
| 20260905060000 | 77 | 11 | 0.0 | 2.0 | 0.00 | 0.63 | 0.00 | 86 | 1013.8 |
| 20260905055455 | 77 | 11 | 0.0 | 2.0 | 0.00 | 0.63 | 0.00 | 86 | 1013.8 |
| 20260905054949 | 77 | 239 | 0.0 | 0.0 | 0.00 | 0.63 | 0.00 | 86 | 1013.8 |
| 20260905054442 | 78 | 238 | 0.0 | 2.0 | 0.00 | 0.63 | 0.00 | 86 | 1013.6 |
| 20260905053936 | 78 | 238 | 0.0 | 2.0 | 0.00 | 0.63 | 0.00 | 86 | 1013.6 |
| 20260905053431 | 78 | 238 | 0.0 | 3.0 | 0.00 | 0.63 | 0.00 | 87 | 1013.5 |
| 20260905052925 | 78 | 238 | 0.0 | 3.0 | 0.00 | 0.63 | 0.00 | 87 | 1013.4 |
| 20260905052418 | 78 | 73 | 0.0 | 3.0 | 0.00 | 0.63 | 0.00 | 87 | 1013.4 |
| 20260905051913 | 78 | 5 | 1.0 | 5.0 | 0.00 | 0.63 | 0.00 | 87 | 1013.4 |
| 20260905051406 | 78 | 18 | 0.0 | 5.0 | 0.00 | 0.63 | 0.00 | 87 | 1013.4 |
| 20260905051119 | 78 | 130 | 0.0 | 0.0 | 0.00 | 0.63 | 0.00 | 87 | 1013.4 |
| 20260905050354 | 78 | 130 | 0.0 | 0.0 | 0.00 | 0.63 | 0.00 | 87 | 1013.3 |
| 20260905045853 | 78 | 229 | 0.0 | 0.0 | 0.00 | 0.63 | 0.63 | 87 | 1013.3 |
| 20260905045353 | 78 | 229 | 0.0 | 0.0 | 0.00 | 0.63 | 0.63 | 87 | 1013.1 |
| 20260905044851 | 78 | 229 | 0.0 | 0.0 | 0.00 | 0.63 | 0.63 | 87 | 1013.1 |
| 20260905044351 | 79 | 159 | 0.0 | 0.0 | 0.00 | 0.63 | 0.63 | 87 | 1013.1 |
| 20260905043851 | 79 | 192 | 0.0 | 0.0 | 0.00 | 0.63 | 0.63 | 87 | 1013.1 |
| 20260905043349 | 79 | 180 | 0.0 | 0.0 | 0.00 | 0.63 | 0.63 | 87 | 1013.1 |
| 20260905042847 | 79 | 165 | 0.0 | 0.0 | 0.00 | 0.63 | 0.63 | 87 | 1013.0 |
| 20260905042346 | 79 | 165 | 0.0 | 0.0 | 0.00 | 0.63 | 0.63 | 87 | 1013.1 |
| 20260905041845 | 79 | 165 | 0.0 | 0.0 | 0.00 | 0.63 | 0.63 | 86 | 1013.1 |
| 20260905041610 | 79 | 165 | 0.0 | 3.0 | 0.00 | 0.63 | 0.63 | 86 | 1013.0 |
| 20260905040845 | 79 | 179 | 0.0 | 3.0 | 0.00 | 0.63 | 0.63 | 87 | 1012.8 |
| 20260905040346 | 79 | 310 | 0.0 | 2.0 | 0.00 | 0.63 | 0.63 | 87 | 1012.9 |
| 20260905040104 | 79 | 348 | 0.0 | 0.0 | 0.00 | 0.63 | 0.63 | 87 | 1012.8 |
| 20260905035345 | 79 | 215 | 0.0 | 1.0 | 0.00 | 0.63 | 0.63 | 87 | 1012.7 |
| 20260905034844 | 79 | 215 | 0.0 | 3.0 | 0.00 | 0.63 | 0.63 | 87 | 1012.8 |
| 20260905034341 | 79 | 338 | 0.0 | 3.0 | 0.00 | 0.63 | 0.63 | 87 | 1012.7 |
| 20260905033839 | 80 | 88 | 0.0 | 0.0 | 0.00 | 0.63 | 0.63 | 87 | 1012.7 |
| 20260905033608 | 80 | 88 | 0.0 | 0.0 | 0.00 | 0.63 | 0.63 | 86 | 1012.7 |
| 20260905032835 | 80 | 88 | 0.0 | 0.0 | 0.00 | 0.63 | 0.63 | 86 | 1012.8 |
| 20260905032333 | 80 | 88 | 0.0 | 0.0 | 0.00 | 0.63 | 0.63 | 86 | 1012.9 |
| 20260905031826 | 80 | 88 | 0.0 | 0.0 | 0.00 | 0.63 | 0.63 | 86 | 1012.9 |
| 20260905031321 | 80 | 88 | 0.0 | 0.0 | 0.00 | 0.63 | 0.63 | 86 | 1012.9 |
| 20260905030814 | 80 | 88 | 0.0 | 0.0 | 0.00 | 0.63 | 0.63 | 86 | 1012.9 |
| 20260905030535 | 80 | 88 | 0.0 | 0.0 | 0.00 | 0.63 | 0.63 | 86 | 1012.9 |
| 20260905025802 | 80 | 88 | 0.0 | 0.0 | 0.00 | 0.63 | 0.63 | 86 | 1012.9 |
| 20260905025258 | 80 | 88 | 0.0 | 0.0 | 0.00 | 0.63 | 0.63 | 86 | 1012.9 |
| 20260905024751 | 80 | 88 | 0.0 | 0.0 | 0.00 | 0.63 | 0.63 | 86 | 1012.9 |
| 20260905024244 | 80 | 88 | 0.0 | 0.0 | 0.00 | 0.63 | 0.63 | 85 | 1012.9 |
| 20260905023739 | 80 | 88 | 0.0 | 0.0 | 0.00 | 0.63 | 0.63 | 85 | 1012.9 |
| 20260905023232 | 80 | 88 | 0.0 | 0.0 | 0.00 | 0.63 | 0.63 | 85 | 1012.9 |
| 20260905022726 | 80 | 88 | 0.0 | 0.0 | 0.00 | 0.63 | 0.63 | 85 | 1012.8 |
| 20260905022221 | 80 | 88 | 0.0 | 0.0 | 0.00 | 0.63 | 0.63 | 85 | 1012.9 |
| 20260905021714 | 80 | 88 | 0.0 | 1.0 | 0.00 | 0.63 | 0.63 | 85 | 1013.0 |
| 20260905021210 | 81 | 88 | 0.0 | 2.0 | 0.00 | 0.63 | 0.63 | 84 | 1012.9 |
| 20260905020702 | 81 | 88 | 1.0 | 4.0 | 0.00 | 0.63 | 0.63 | 84 | 1012.8 |
| 20260905020424 | 81 | 88 | 1.0 | 4.0 | 0.00 | 0.63 | 0.63 | 84 | 1012.7 |
| 20260905015650 | 81 | 80 | 0.0 | 1.0 | 0.00 | 0.63 | 0.63 | 83 | 1012.8 |
| 20260905015408 | 81 | 80 | 0.0 | 0.0 | 0.00 | 0.63 | 0.63 | 83 | 1012.7 |
| 20260905015124 | 81 | 80 | 0.0 | 1.0 | 0.00 | 0.63 | 0.63 | 83 | 1012.7 |
| 20260905014351 | 82 | 80 | 0.0 | 2.0 | 0.00 | 0.63 | 0.63 | 83 | 1012.7 |
| 20260905013850 | 82 | 80 | 0.0 | 2.0 | 0.00 | 0.63 | 0.63 | 82 | 1012.5 |
| 20260905013120 | 82 | 80 | 0.0 | 1.0 | 0.00 | 0.63 | 0.63 | 82 | 1012.3 |
| 20260905012614 | 82 | 80 | 1.0 | 4.0 | 0.00 | 0.63 | 0.63 | 82 | 1012.2 |
| 20260905012109 | 82 | 80 | 2.0 | 4.0 | 0.00 | 0.63 | 0.63 | 82 | 1012.2 |
| 20260905011821 | 83 | 80 | 2.0 | 4.0 | 0.00 | 0.63 | 0.63 | 82 | 1012.2 |
| 20260905011056 | 83 | 80 | 1.0 | 4.0 | 0.00 | 0.63 | 0.63 | 81 | 1012.2 |
| 20260905010550 | 84 | 242 | 0.0 | 0.0 | 0.00 | 0.63 | 0.63 | 80 | 1012.1 |
| 20260905010305 | 84 | 244 | 0.0 | 0.0 | 0.00 | 0.63 | 0.63 | 80 | 1012.0 |
| 20260905005800 | 84 | 244 | 0.0 | 0.0 | 0.00 | 0.63 | 0.63 | 79 | 1011.9 |
| 20260905005032 | 85 | 244 | 0.0 | 0.0 | 0.00 | 0.63 | 0.63 | 79 | 1011.8 |
| 20260905004526 | 85 | 244 | 0.0 | 0.0 | 0.00 | 0.63 | 0.63 | 79 | 1011.8 |
| 20260905004244 | 85 | 244 | 0.0 | 0.0 | 0.00 | 0.63 | 0.63 | 78 | 1011.6 |